| time (UTC) | temp F | wind direction | speed MPH | gust MPH | rain 1hr in | rain 24hr in | rain mn in | humidity % | barometer mb |
| 20260906023050 | 60 | 224 | 0.0 | 2.0 | 0.00 | 0.01 | 0.01 | 84 | 1015.6 |
| 20260906022544 | 61 | 224 | 0.0 | 2.0 | 0.00 | 0.01 | 0.01 | 84 | 1015.6 |
| 20260906022039 | 62 | 224 | 0.0 | 2.0 | 0.00 | 0.01 | 0.01 | 83 | 1015.5 |
| 20260906021531 | 62 | 217 | 0.0 | 1.0 | 0.00 | 0.01 | 0.01 | 83 | 1015.5 |
| 20260906021026 | 62 | 218 | 0.0 | 1.0 | 0.00 | 0.01 | 0.01 | 82 | 1015.5 |
| 20260906020521 | 63 | 213 | 0.0 | 1.0 | 0.00 | 0.01 | 0.01 | 82 | 1015.5 |
| 20260906020015 | 64 | 213 | 0.0 | 1.0 | 0.00 | 0.01 | 0.01 | 81 | 1015.5 |
| 20260906015508 | 64 | 213 | 0.0 | 2.0 | 0.00 | 0.01 | 0.01 | 80 | 1015.4 |
| 20260906015233 | 64 | 218 | 1.0 | 3.0 | 0.00 | 0.01 | 0.01 | 79 | 1015.4 |
| 20260906014455 | 65 | 218 | 1.0 | 4.0 | 0.00 | 0.01 | 0.01 | 80 | 1015.4 |
| 20260906014222 | 65 | 225 | 1.0 | 4.0 | 0.00 | 0.01 | 0.01 | 78 | 1015.3 |
| 20260906013714 | 65 | 213 | 1.0 | 4.0 | 0.00 | 0.01 | 0.01 | 79 | 1015.2 |
| 20260906012938 | 66 | 223 | 1.0 | 4.0 | 0.00 | 0.01 | 0.01 | 76 | 1015.2 |
| 20260906012432 | 66 | 226 | 1.0 | 3.0 | 0.00 | 0.01 | 0.01 | 75 | 1015.1 |
| 20260906011932 | 66 | 209 | 1.0 | 2.0 | 0.00 | 0.01 | 0.01 | 73 | 1015.1 |
| 20260906011647 | 66 | 229 | 1.0 | 2.0 | 0.00 | 0.01 | 0.01 | 81 | 1015.0 |
| 20260906010929 | 66 | 241 | 0.0 | 2.0 | 0.00 | 0.01 | 0.01 | 78 | 1015.0 |
| 20260906010438 | 67 | 55 | 0.0 | 1.0 | 0.00 | 0.01 | 0.01 | 79 | 1014.9 |
| 20260906010148 | 67 | 55 | 0.0 | 1.0 | 0.00 | 0.01 | 0.01 | 77 | 1015.0 |
| 20260906005645 | 67 | 53 | 0.0 | 1.0 | 0.00 | 0.01 | 0.01 | 74 | 1015.0 |
| 20260906004927 | 67 | 200 | 0.0 | 1.0 | 0.00 | 0.01 | 0.01 | 76 | 1015.0 |
| 20260906004643 | 67 | 200 | 0.0 | 2.0 | 0.00 | 0.01 | 0.01 | 74 | 1014.9 |
| 20260906003927 | 67 | 200 | 0.0 | 3.0 | 0.00 | 0.01 | 0.01 | 76 | 1015.0 |
| 20260906003426 | 68 | 202 | 1.0 | 3.0 | 0.00 | 0.01 | 0.01 | 74 | 1015.0 |
| 20260906002925 | 68 | 340 | 0.0 | 2.0 | 0.00 | 0.01 | 0.01 | 70 | 1014.9 |
| 20260906002426 | 68 | 35 | 1.0 | 3.0 | 0.00 | 0.01 | 0.01 | 70 | 1014.9 |
| 20260906002207 | 68 | 355 | 1.0 | 4.0 | 0.00 | 0.02 | 0.01 | 61 | 1014.8 |
| 20260906001926 | 68 | 219 | 1.0 | 4.0 | 0.00 | 0.01 | 0.01 | 71 | 1014.9 |
| 20260906001150 | 68 | 350 | 1.0 | 4.0 | 0.00 | 0.03 | 0.01 | 64 | 1014.8 |
| 20260906000426 | 68 | 196 | 1.0 | 4.0 | 0.00 | 0.04 | 0.01 | 67 | 1014.8 |
| 20260905235926 | 68 | 90 | 1.0 | 5.0 | 0.00 | 0.05 | 0.01 | 62 | 1014.7 |
| 20260905235421 | 68 | 9 | 1.0 | 5.0 | 0.00 | 0.06 | 0.01 | 64 | 1014.7 |
| 20260905234920 | 68 | 108 | 1.0 | 3.0 | 0.00 | 0.07 | 0.01 | 62 | 1014.8 |
| 20260905234418 | 68 | 29 | 1.0 | 4.0 | 0.00 | 0.07 | 0.01 | 63 | 1014.8 |
| 20260905233916 | 68 | 343 | 1.0 | 4.0 | 0.00 | 0.08 | 0.01 | 65 | 1014.8 |
| 20260905233634 | 68 | 332 | 0.0 | 3.0 | 0.00 | 0.09 | 0.01 | 64 | 1014.8 |
| 20260905233407 | 68 | 337 | 0.0 | 3.0 | 0.00 | 0.10 | 0.01 | 66 | 1014.8 |
| 20260905232642 | 68 | 304 | 0.0 | 3.0 | 0.00 | 0.11 | 0.01 | 67 | 1014.8 |
| 20260905231912 | 68 | 273 | 0.0 | 3.0 | 0.00 | 0.11 | 0.01 | 69 | 1014.9 |
| 20260905231410 | 68 | 339 | 0.0 | 3.0 | 0.00 | 0.11 | 0.01 | 67 | 1015.0 |
| 20260905230914 | 68 | 177 | 1.0 | 4.0 | 0.00 | 0.11 | 0.01 | 69 | 1015.0 |
| 20260905230413 | 68 | 184 | 1.0 | 4.0 | 0.00 | 0.11 | 0.01 | 65 | 1015.1 |
| 20260905225909 | 68 | 14 | 1.0 | 4.0 | 0.00 | 0.11 | 0.01 | 66 | 1015.1 |
| 20260905225410 | 69 | 344 | 0.0 | 4.0 | 0.00 | 0.11 | 0.01 | 67 | 1015.1 |
| 20260905224909 | 68 | 5 | 0.0 | 3.0 | 0.00 | 0.11 | 0.01 | 66 | 1015.0 |
| 20260905224410 | 68 | 249 | 0.0 | 2.0 | 0.00 | 0.11 | 0.01 | 68 | 1015.1 |
| 20260905224327 | 67 | 323 | 0.0 | 1.0 | 0.00 | 0.11 | 0.01 | 71 | 1015.3 |
| 20260905224304 | 67 | 351 | 0.0 | 2.0 | 0.00 | 0.11 | 0.01 | 71 | 1015.2 |
| 20260905222911 | 67 | 246 | 0.0 | 0.0 | 0.00 | 0.11 | 0.01 | 74 | 1015.4 |
| 20260905222408 | 67 | 246 | 0.0 | 0.0 | 0.00 | 0.11 | 0.01 | 74 | 1015.5 |
| 20260905221906 | 67 | 246 | 0.0 | 0.0 | 0.00 | 0.11 | 0.01 | 75 | 1015.6 |
| 20260905221407 | 67 | 246 | 0.0 | 0.0 | 0.00 | 0.11 | 0.01 | 74 | 1015.6 |
| 20260905220908 | 67 | 234 | 0.0 | 0.0 | 0.00 | 0.11 | 0.01 | 75 | 1015.7 |
| 20260905220408 | 67 | 229 | 0.0 | 0.0 | 0.00 | 0.11 | 0.01 | 73 | 1015.6 |
| 20260905215907 | 67 | 229 | 0.0 | 2.0 | 0.00 | 0.11 | 0.01 | 75 | 1015.7 |
| 20260905215407 | 67 | 228 | 0.0 | 2.0 | 0.00 | 0.11 | 0.01 | 76 | 1015.8 |
| 20260905215136 | 67 | 213 | 0.0 | 2.0 | 0.00 | 0.11 | 0.01 | 72 | 1015.8 |
| 20260905215104 | 67 | 355 | 0.0 | 2.0 | 0.00 | 0.11 | 0.01 | 71 | 1015.8 |
| 20260905213911 | 67 | 127 | 0.0 | 1.0 | 0.00 | 0.11 | 0.01 | 70 | 1015.9 |
| 20260905213905 | 67 | 248 | 0.0 | 1.0 | 0.00 | 0.11 | 0.01 | 71 | 1015.8 |
| 20260905212907 | 67 | 100 | 0.0 | 3.0 | 0.00 | 0.11 | 0.01 | 67 | 1015.9 |
| 20260905212408 | 67 | 90 | 0.0 | 3.0 | 0.00 | 0.11 | 0.01 | 67 | 1015.9 |
| 20260905211907 | 68 | 178 | 0.0 | 1.0 | 0.00 | 0.11 | 0.01 | 69 | 1015.9 |
| 20260905211407 | 67 | 142 | 0.0 | 4.0 | 0.00 | 0.12 | 0.01 | 69 | 1015.8 |
| 20260905210907 | 68 | 159 | 0.0 | 4.0 | 0.00 | 0.12 | 0.01 | 68 | 1015.9 |
| 20260905210407 | 68 | 224 | 0.0 | 2.0 | 0.00 | 0.12 | 0.01 | 71 | 1015.9 |
| 20260905205906 | 68 | 214 | 0.0 | 2.0 | 0.00 | 0.13 | 0.01 | 70 | 1015.9 |
| 20260905205404 | 68 | 355 | 0.0 | 1.0 | 0.00 | 0.13 | 0.01 | 70 | 1015.9 |
| 20260905205125 | 68 | 294 | 0.0 | 1.0 | 0.00 | 0.13 | 0.01 | 70 | 1015.9 |
| 20260905204408 | 68 | 294 | 0.0 | 1.0 | 0.00 | 0.13 | 0.01 | 69 | 1015.9 |
| 20260905203902 | 67 | 294 | 0.0 | 1.0 | 0.00 | 0.13 | 0.01 | 70 | 1015.8 |
| 20260905203401 | 67 | 297 | 0.0 | 2.0 | 0.00 | 0.13 | 0.01 | 72 | 1015.8 |
| 20260905202900 | 67 | 71 | 0.0 | 2.0 | 0.00 | 0.13 | 0.01 | 71 | 1015.8 |
| 20260905202358 | 67 | 279 | 0.0 | 2.0 | 0.00 | 0.13 | 0.01 | 73 | 1015.8 |
| 20260905201856 | 67 | 277 | 0.0 | 2.0 | 0.00 | 0.13 | 0.01 | 73 | 1015.8 |
| 20260905201357 | 66 | 267 | 0.0 | 4.0 | 0.00 | 0.13 | 0.01 | 71 | 1015.8 |
| 20260905200858 | 66 | 170 | 1.0 | 4.0 | 0.00 | 0.13 | 0.01 | 75 | 1015.9 |
| 20260905200356 | 66 | 355 | 1.0 | 3.0 | 0.00 | 0.13 | 0.01 | 75 | 1015.9 |
| 20260905195855 | 66 | 350 | 0.0 | 3.0 | 0.00 | 0.13 | 0.01 | 74 | 1015.9 |
| 20260905195355 | 66 | 0 | 0.0 | 2.0 | 0.00 | 0.13 | 0.01 | 75 | 1015.8 |
| 20260905194852 | 66 | 342 | 0.0 | 2.0 | 0.00 | 0.13 | 0.01 | 77 | 1015.9 |
| 20260905194400 | 66 | 9 | 0.0 | 2.0 | 0.00 | 0.13 | 0.01 | 76 | 1015.9 |
| 20260905193902 | 66 | 5 | 0.0 | 2.0 | 0.00 | 0.13 | 0.01 | 74 | 1015.9 |
| 20260905193401 | 66 | 5 | 1.0 | 6.0 | 0.00 | 0.13 | 0.01 | 76 | 1016.0 |
| 20260905192855 | 65 | 16 | 1.0 | 6.0 | 0.00 | 0.13 | 0.01 | 78 | 1016.1 |
| 20260905192606 | 65 | 5 | 0.0 | 2.0 | 0.00 | 0.13 | 0.01 | 78 | 1016.1 |
| 20260905192105 | 65 | 320 | 0.0 | 2.0 | 0.00 | 0.13 | 0.01 | 77 | 1016.1 |
| 20260905191558 | 65 | 305 | 0.0 | 1.0 | 0.00 | 0.13 | 0.01 | 78 | 1016.1 |
| 20260905190830 | 65 | 67 | 1.0 | 5.0 | 0.00 | 0.13 | 0.01 | 78 | 1016.2 |
| 20260905190552 | 65 | 67 | 1.0 | 5.0 | 0.00 | 0.13 | 0.01 | 76 | 1016.2 |
| 20260905185819 | 65 | 341 | 1.0 | 5.0 | 0.00 | 0.13 | 0.01 | 76 | 1016.3 |
| 20260905185313 | 65 | 50 | 1.0 | 5.0 | 0.00 | 0.13 | 0.01 | 78 | 1016.3 |
| 20260905184807 | 64 | 273 | 0.0 | 3.0 | 0.00 | 0.13 | 0.01 | 79 | 1016.3 |
| 20260905184300 | 64 | 321 | 0.0 | 3.0 | 0.00 | 0.13 | 0.01 | 84 | 1016.3 |
| 20260905183751 | 63 | 82 | 0.0 | 2.0 | 0.00 | 0.13 | 0.01 | 84 | 1016.4 |
| 20260905183249 | 62 | 55 | 0.0 | 2.0 | 0.00 | 0.13 | 0.01 | 85 | 1016.4 |
| 20260905183002 | 61 | 15 | 0.0 | 2.0 | 0.00 | 0.13 | 0.01 | 87 | 1016.5 |
| 20260905182240 | 61 | 44 | 0.0 | 1.0 | 0.00 | 0.13 | 0.01 | 89 | 1016.6 |
| 20260905181731 | 60 | 45 | 1.0 | 3.0 | 0.00 | 0.13 | 0.01 | 87 | 1016.7 |
| 20260905181225 | 59 | 19 | 1.0 | 3.0 | 0.00 | 0.13 | 0.01 | 89 | 1016.6 |
| 20260905180719 | 58 | 5 | 0.0 | 2.0 | 0.00 | 0.13 | 0.01 | 93 | 1016.7 |
| 20260905180216 | 57 | 333 | 0.0 | 3.0 | 0.00 | 0.13 | 0.01 | 98 | 1016.7 |
| 20260905175707 | 56 | 333 | 0.0 | 3.0 | 0.00 | 0.13 | 0.01 | 98 | 1016.7 |
| 20260905175157 | 56 | 71 | 1.0 | 3.0 | 0.00 | 0.13 | 0.01 | 98 | 1016.7 |
| 20260905174922 | 55 | 108 | 1.0 | 3.0 | 0.00 | 0.13 | 0.01 | 98 | 1016.7 |
| 20260905174147 | 55 | 49 | 0.0 | 3.0 | 0.00 | 0.13 | 0.01 | 98 | 1016.7 |
| 20260905173639 | 55 | 319 | 0.0 | 1.0 | 0.00 | 0.13 | 0.01 | 98 | 1016.7 |
| 20260905173137 | 55 | 312 | 0.0 | 1.0 | 0.00 | 0.13 | 0.01 | 98 | 1016.7 |
| 20260905172630 | 54 | 312 | 0.0 | 0.0 | 0.00 | 0.13 | 0.01 | 98 | 1016.7 |
| 20260905172125 | 54 | 312 | 0.0 | 0.0 | 0.00 | 0.13 | 0.01 | 98 | 1016.8 |
| 20260905171617 | 53 | 312 | 0.0 | 0.0 | 0.00 | 0.13 | 0.01 | 98 | 1016.7 |
| 20260905171113 | 53 | 312 | 0.0 | 0.0 | 0.00 | 0.13 | 0.01 | 98 | 1016.7 |
| 20260905170606 | 53 | 312 | 0.0 | 0.0 | 0.00 | 0.13 | 0.01 | 98 | 1016.7 |
| 20260905170101 | 53 | 312 | 0.0 | 0.0 | 0.00 | 0.13 | 0.01 | 98 | 1016.8 |
| 20260905165553 | 52 | 312 | 0.0 | 0.0 | 0.00 | 0.13 | 0.01 | 98 | 1016.8 |
| 20260905165049 | 52 | 312 | 0.0 | 1.0 | 0.00 | 0.13 | 0.01 | 98 | 1016.8 |
| 20260905164543 | 52 | 312 | 0.0 | 2.0 | 0.00 | 0.13 | 0.01 | 98 | 1016.8 |
| 20260905164037 | 51 | 312 | 0.0 | 2.0 | 0.00 | 0.13 | 0.01 | 98 | 1016.9 |
| 20260905163533 | 51 | 298 | 0.0 | 1.0 | 0.00 | 0.13 | 0.01 | 98 | 1016.8 |
| 20260905163508 | 51 | 298 | 0.0 | 1.0 | 0.00 | 0.13 | 0.01 | 98 | 1016.8 |
| 20260905162515 | 51 | 298 | 0.0 | 0.0 | 0.00 | 0.13 | 0.01 | 98 | 1016.9 |
| 20260905162013 | 50 | 298 | 0.0 | 0.0 | 0.00 | 0.13 | 0.01 | 98 | 1016.9 |
| 20260905161001 | 50 | 298 | 0.0 | 1.0 | 0.00 | 0.13 | 0.01 | 98 | 1016.9 |
| 20260905160455 | 49 | 298 | 0.0 | 1.0 | 0.00 | 0.13 | 0.01 | 98 | 1016.9 |
| 20260905155949 | 49 | 254 | 0.0 | 0.0 | 0.00 | 0.13 | 0.01 | 98 | 1016.9 |
| 20260905155445 | 49 | 254 | 0.0 | 0.0 | 0.00 | 0.13 | 0.01 | 98 | 1016.9 |
| 20260905154937 | 49 | 254 | 0.0 | 0.0 | 0.00 | 0.13 | 0.01 | 98 | 1017.0 |
| 20260905154431 | 48 | 254 | 0.0 | 0.0 | 0.00 | 0.13 | 0.01 | 98 | 1016.9 |
| 20260905153930 | 48 | 254 | 0.0 | 0.0 | 0.00 | 0.13 | 0.01 | 98 | 1016.9 |
| 20260905153429 | 48 | 254 | 0.0 | 0.0 | 0.00 | 0.13 | 0.01 | 97 | 1016.9 |
| 20260905152926 | 48 | 254 | 0.0 | 0.0 | 0.00 | 0.13 | 0.01 | 97 | 1016.9 |
| 20260905152428 | 48 | 254 | 0.0 | 0.0 | 0.00 | 0.13 | 0.01 | 98 | 1016.8 |
| 20260905151927 | 48 | 254 | 0.0 | 0.0 | 0.00 | 0.13 | 0.01 | 97 | 1016.8 |
| 20260905151424 | 47 | 254 | 0.0 | 0.0 | 0.00 | 0.13 | 0.01 | 97 | 1016.8 |
| 20260905151151 | 47 | 254 | 0.0 | 0.0 | 0.00 | 0.13 | 0.01 | 98 | 1016.7 |
| 20260905150422 | 47 | 254 | 0.0 | 0.0 | 0.00 | 0.13 | 0.01 | 98 | 1016.7 |
| 20260905150147 | 47 | 254 | 0.0 | 0.0 | 0.00 | 0.13 | 0.01 | 97 | 1016.7 |
| 20260905145658 | 47 | 254 | 0.0 | 0.0 | 0.00 | 0.13 | 0.01 | 97 | 1016.6 |
| 20260905144922 | 47 | 254 | 0.0 | 0.0 | 0.00 | 0.13 | 0.01 | 97 | 1016.6 |
| 20260905144645 | 47 | 254 | 0.0 | 0.0 | 0.00 | 0.13 | 0.01 | 97 | 1016.6 |
| 20260905143920 | 47 | 230 | 0.0 | 0.0 | 0.00 | 0.13 | 0.01 | 97 | 1016.5 |
| 20260905143417 | 46 | 230 | 0.0 | 0.0 | 0.00 | 0.13 | 0.01 | 97 | 1016.5 |
| 20260905142919 | 46 | 230 | 0.0 | 1.0 | 0.00 | 0.13 | 0.01 | 97 | 1016.5 |
| 20260905142417 | 46 | 230 | 0.0 | 1.0 | 0.00 | 0.13 | 0.01 | 97 | 1016.5 |
| 20260905141920 | 46 | 230 | 0.0 | 0.0 | 0.00 | 0.13 | 0.01 | 97 | 1016.4 |
| 20260905141417 | 46 | 230 | 0.0 | 0.0 | 0.00 | 0.13 | 0.01 | 97 | 1016.5 |
| 20260905140918 | 46 | 230 | 0.0 | 0.0 | 0.00 | 0.13 | 0.01 | 97 | 1016.4 |
| 20260905140418 | 46 | 231 | 0.0 | 0.0 | 0.00 | 0.13 | 0.01 | 97 | 1016.4 |
| 20260905135922 | 46 | 231 | 0.0 | 0.0 | 0.00 | 0.13 | 0.01 | 97 | 1016.4 |
| 20260905135416 | 46 | 231 | 0.0 | 1.0 | 0.00 | 0.13 | 0.01 | 97 | 1016.4 |
| 20260905134916 | 46 | 231 | 0.0 | 1.0 | 0.00 | 0.13 | 0.01 | 97 | 1016.3 |
| 20260905134422 | 46 | 231 | 0.0 | 0.0 | 0.00 | 0.13 | 0.01 | 97 | 1016.2 |
| 20260905133915 | 46 | 231 | 0.0 | 0.0 | 0.00 | 0.13 | 0.01 | 97 | 1016.2 |
| 20260905133412 | 46 | 231 | 0.0 | 0.0 | 0.00 | 0.14 | 0.01 | 97 | 1016.1 |
| 20260905132910 | 46 | 231 | 0.0 | 1.0 | 0.00 | 0.14 | 0.01 | 97 | 1016.2 |
| 20260905132636 | 46 | 231 | 0.0 | 1.0 | 0.00 | 0.14 | 0.01 | 97 | 1016.1 |
| 20260905131908 | 46 | 231 | 0.0 | 0.0 | 0.00 | 0.14 | 0.01 | 97 | 1016.2 |
| 20260905131408 | 46 | 231 | 0.0 | 2.0 | 0.00 | 0.14 | 0.01 | 97 | 1016.2 |
| 20260905130909 | 46 | 231 | 0.0 | 2.0 | 0.00 | 0.14 | 0.01 | 97 | 1016.1 |
| 20260905130409 | 46 | 240 | 0.0 | 2.0 | 0.00 | 0.14 | 0.01 | 97 | 1016.2 |
| 20260905125909 | 46 | 213 | 0.0 | 2.0 | 0.00 | 0.14 | 0.01 | 97 | 1016.2 |
| 20260905125412 | 46 | 211 | 0.0 | 2.0 | 0.00 | 0.14 | 0.01 | 97 | 1016.1 |
| 20260905124914 | 46 | 211 | 1.0 | 2.0 | 0.00 | 0.14 | 0.01 | 97 | 1016.1 |
| 20260905124406 | 46 | 196 | 0.0 | 2.0 | 0.00 | 0.14 | 0.01 | 97 | 1016.1 |
| 20260905124129 | 47 | 202 | 0.0 | 1.0 | 0.00 | 0.14 | 0.01 | 97 | 1016.1 |
| 20260905123405 | 47 | 203 | 0.0 | 2.0 | 0.00 | 0.14 | 0.01 | 97 | 1016.1 |
| 20260905122858 | 47 | 204 | 0.0 | 2.0 | 0.00 | 0.14 | 0.01 | 97 | 1016.1 |
| 20260905122353 | 47 | 188 | 0.0 | 1.0 | 0.00 | 0.14 | 0.01 | 97 | 1016.1 |
| 20260905121846 | 47 | 188 | 0.0 | 2.0 | 0.00 | 0.14 | 0.01 | 97 | 1016.1 |
| 20260905121341 | 47 | 189 | 0.0 | 2.0 | 0.00 | 0.14 | 0.01 | 97 | 1016.1 |
| 20260905120834 | 47 | 192 | 1.0 | 2.0 | 0.00 | 0.14 | 0.01 | 97 | 1016.2 |
| 20260905120559 | 47 | 214 | 1.0 | 3.0 | 0.00 | 0.14 | 0.01 | 97 | 1016.2 |
| 20260905115822 | 47 | 191 | 1.0 | 3.0 | 0.00 | 0.14 | 0.01 | 97 | 1016.2 |
| 20260905115317 | 47 | 216 | 0.0 | 3.0 | 0.00 | 0.14 | 0.01 | 97 | 1016.2 |
| 20260905115034 | 47 | 187 | 0.0 | 2.0 | 0.00 | 0.14 | 0.01 | 97 | 1016.2 |
| 20260905114304 | 47 | 194 | 1.0 | 4.0 | 0.00 | 0.14 | 0.01 | 97 | 1016.2 |
| 20260905113758 | 46 | 238 | 0.0 | 4.0 | 0.00 | 0.14 | 0.01 | 97 | 1016.2 |
| 20260905113255 | 46 | 200 | 0.0 | 1.0 | 0.00 | 0.14 | 0.01 | 97 | 1016.2 |
| 20260905112746 | 46 | 201 | 0.0 | 2.0 | 0.00 | 0.14 | 0.01 | 97 | 1016.2 |
| 20260905112243 | 46 | 201 | 0.0 | 2.0 | 0.00 | 0.14 | 0.01 | 97 | 1016.1 |
| 20260905111743 | 46 | 203 | 0.0 | 2.0 | 0.00 | 0.14 | 0.01 | 97 | 1016.1 |
| 20260905111243 | 46 | 198 | 1.0 | 2.0 | 0.00 | 0.14 | 0.01 | 97 | 1016.1 |
| 20260905110740 | 46 | 214 | 0.0 | 2.0 | 0.00 | 0.14 | 0.01 | 97 | 1016.1 |
| 20260905110241 | 46 | 201 | 0.0 | 2.0 | 0.00 | 0.14 | 0.01 | 97 | 1016.1 |
| 20260905105740 | 46 | 202 | 0.0 | 2.0 | 0.00 | 0.14 | 0.01 | 97 | 1016.1 |
| 20260905105239 | 46 | 211 | 0.0 | 2.0 | 0.00 | 0.14 | 0.01 | 97 | 1016.1 |
| 20260905104744 | 47 | 211 | 1.0 | 2.0 | 0.00 | 0.14 | 0.01 | 97 | 1016.0 |
| 20260905104238 | 47 | 202 | 1.0 | 3.0 | 0.00 | 0.14 | 0.01 | 97 | 1016.1 |
| 20260905103733 | 46 | 215 | 1.0 | 3.0 | 0.00 | 0.14 | 0.01 | 97 | 1016.0 |
| 20260905103241 | 47 | 207 | 0.0 | 2.0 | 0.00 | 0.14 | 0.01 | 97 | 1016.0 |
| 20260905103234 | 47 | 213 | 0.0 | 3.0 | 0.00 | 0.14 | 0.01 | 97 | 1016.0 |
| 20260905102230 | 47 | 188 | 0.0 | 2.0 | 0.00 | 0.14 | 0.01 | 97 | 1016.0 |
| 20260905101728 | 47 | 188 | 1.0 | 2.0 | 0.00 | 0.14 | 0.01 | 97 | 1016.0 |
| 20260905101453 | 47 | 205 | 1.0 | 3.0 | 0.00 | 0.14 | 0.01 | 97 | 1016.0 |
| 20260905100729 | 47 | 202 | 1.0 | 3.0 | 0.00 | 0.14 | 0.01 | 97 | 1016.0 |
| 20260905100228 | 47 | 183 | 1.0 | 4.0 | 0.00 | 0.14 | 0.01 | 97 | 1015.9 |
| 20260905095729 | 47 | 233 | 1.0 | 4.0 | 0.00 | 0.14 | 0.01 | 96 | 1015.9 |
| 20260905095226 | 47 | 226 | 0.0 | 3.0 | 0.00 | 0.14 | 0.01 | 97 | 1015.9 |
| 20260905094730 | 47 | 206 | 0.0 | 1.0 | 0.00 | 0.14 | 0.01 | 97 | 1015.9 |
| 20260905094225 | 47 | 206 | 1.0 | 2.0 | 0.00 | 0.14 | 0.01 | 97 | 1015.9 |
| 20260905093722 | 47 | 212 | 1.0 | 3.0 | 0.00 | 0.14 | 0.01 | 96 | 1015.9 |
| 20260905093218 | 47 | 203 | 1.0 | 3.0 | 0.00 | 0.14 | 0.01 | 96 | 1015.9 |
| 20260905092710 | 47 | 202 | 0.0 | 2.0 | 0.00 | 0.14 | 0.01 | 96 | 1015.9 |
| 20260905092203 | 47 | 205 | 1.0 | 3.0 | 0.00 | 0.14 | 0.01 | 96 | 1015.9 |
| 20260905091655 | 47 | 205 | 1.0 | 3.0 | 0.00 | 0.14 | 0.01 | 97 | 1015.9 |
| 20260905091153 | 47 | 214 | 0.0 | 3.0 | 0.00 | 0.14 | 0.01 | 97 | 1015.9 |
| 20260905090646 | 48 | 213 | 0.0 | 2.0 | 0.00 | 0.14 | 0.01 | 96 | 1015.9 |
| 20260905090139 | 48 | 209 | 0.0 | 2.0 | 0.00 | 0.14 | 0.01 | 96 | 1015.9 |
| 20260905085854 | 48 | 209 | 0.0 | 2.0 | 0.00 | 0.14 | 0.01 | 96 | 1015.8 |
| 20260905085130 | 48 | 208 | 0.0 | 2.0 | 0.00 | 0.14 | 0.01 | 96 | 1015.8 |
| 20260905084621 | 48 | 209 | 1.0 | 2.0 | 0.00 | 0.14 | 0.01 | 96 | 1015.8 |
| 20260905084116 | 48 | 205 | 1.0 | 2.0 | 0.00 | 0.14 | 0.01 | 97 | 1015.8 |
| 20260905083610 | 48 | 202 | 1.0 | 2.0 | 0.00 | 0.14 | 0.01 | 97 | 1015.7 |
| 20260905083106 | 48 | 213 | 0.0 | 2.0 | 0.00 | 0.14 | 0.01 | 96 | 1015.7 |
| 20260905082559 | 48 | 209 | 0.0 | 2.0 | 0.00 | 0.14 | 0.01 | 96 | 1015.7 |
| 20260905082101 | 48 | 209 | 1.0 | 2.0 | 0.00 | 0.14 | 0.01 | 97 | 1015.6 |
| 20260905081822 | 48 | 208 | 1.0 | 2.0 | 0.00 | 0.14 | 0.01 | 97 | 1015.7 |
| 20260905081058 | 49 | 198 | 0.0 | 2.0 | 0.00 | 0.14 | 0.01 | 97 | 1015.6 |
| 20260905080559 | 49 | 199 | 0.0 | 3.0 | 0.00 | 0.14 | 0.01 | 97 | 1015.6 |
| 20260905080056 | 49 | 207 | 1.0 | 4.0 | 0.01 | 0.14 | 0.01 | 97 | 1015.6 |
| 20260905075818 | 49 | 190 | 1.0 | 4.0 | 0.01 | 0.14 | 0.01 | 96 | 1015.6 |
| 20260905075053 | 49 | 222 | 1.0 | 3.0 | 0.01 | 0.14 | 0.01 | 96 | 1015.6 |
| 20260905074554 | 49 | 200 | 1.0 | 3.0 | 0.01 | 0.14 | 0.01 | 96 | 1015.6 |
| 20260905074053 | 49 | 202 | 0.0 | 1.0 | 0.01 | 0.14 | 0.01 | 96 | 1015.7 |
| 20260905073554 | 49 | 202 | 0.0 | 1.0 | 0.01 | 0.14 | 0.01 | 96 | 1015.6 |
| 20260905073054 | 49 | 202 | 0.0 | 2.0 | 0.01 | 0.14 | 0.01 | 97 | 1015.5 |
| 20260905072547 | 49 | 202 | 0.0 | 2.0 | 0.01 | 0.14 | 0.01 | 97 | 1015.6 |
| 20260905072043 | 49 | 183 | 0.0 | 2.0 | 0.01 | 0.14 | 0.01 | 97 | 1015.5 |
| 20260905071536 | 49 | 177 | 0.0 | 0.0 | 0.01 | 0.14 | 0.01 | 97 | 1015.5 |
| 20260905071029 | 50 | 177 | 0.0 | 1.0 | 0.01 | 0.14 | 0.01 | 97 | 1015.5 |
| 20260905070523 | 50 | 177 | 0.0 | 1.0 | 0.01 | 0.14 | 0.01 | 97 | 1015.4 |
| 20260905070017 | 50 | 177 | 0.0 | 2.0 | 0.00 | 0.13 | 0.00 | 97 | 1015.3 |
| 20260905065511 | 50 | 177 | 1.0 | 2.0 | 0.00 | 0.13 | 0.13 | 97 | 1015.3 |
| 20260905065006 | 50 | 180 | 1.0 | 2.0 | 0.00 | 0.13 | 0.13 | 97 | 1015.3 |
| 20260905064459 | 50 | 208 | 0.0 | 1.0 | 0.00 | 0.13 | 0.13 | 97 | 1015.3 |
| 20260905063953 | 50 | 208 | 0.0 | 2.0 | 0.00 | 0.13 | 0.13 | 97 | 1015.2 |
| 20260905063447 | 50 | 208 | 1.0 | 3.0 | 0.00 | 0.13 | 0.13 | 97 | 1015.2 |
| 20260905062940 | 50 | 208 | 1.0 | 3.0 | 0.00 | 0.13 | 0.13 | 97 | 1015.2 |
| 20260905062434 | 50 | 209 | 0.0 | 2.0 | 0.00 | 0.13 | 0.13 | 97 | 1015.2 |
| 20260905061929 | 50 | 217 | 0.0 | 2.0 | 0.00 | 0.13 | 0.13 | 97 | 1015.1 |
| 20260905061423 | 50 | 217 | 0.0 | 2.0 | 0.00 | 0.13 | 0.13 | 97 | 1015.1 |
| 20260905060917 | 50 | 217 | 0.0 | 2.0 | 0.00 | 0.13 | 0.13 | 96 | 1015.1 |
| 20260905060411 | 50 | 180 | 1.0 | 3.0 | 0.00 | 0.13 | 0.13 | 97 | 1015.1 |
| 20260905055905 | 50 | 219 | 1.0 | 3.0 | 0.00 | 0.13 | 0.13 | 97 | 1015.2 |
| 20260905055400 | 50 | 202 | 1.0 | 3.0 | 0.00 | 0.13 | 0.13 | 97 | 1015.2 |
| 20260905054853 | 50 | 205 | 1.0 | 3.0 | 0.00 | 0.13 | 0.13 | 97 | 1015.2 |
| 20260905054347 | 50 | 198 | 1.0 | 3.0 | 0.00 | 0.13 | 0.13 | 96 | 1015.1 |
| 20260905054104 | 50 | 213 | 1.0 | 3.0 | 0.00 | 0.13 | 0.13 | 96 | 1015.1 |
| 20260905053336 | 51 | 217 | 0.0 | 2.0 | 0.00 | 0.13 | 0.13 | 96 | 1015.2 |
| 20260905053047 | 51 | 217 | 0.0 | 1.0 | 0.00 | 0.13 | 0.13 | 96 | 1015.2 |
| 20260905052520 | 51 | 218 | 0.0 | 0.0 | 0.00 | 0.13 | 0.13 | 96 | 1015.2 |
| 20260905052415 | 51 | 218 | 0.0 | 1.0 | 0.00 | 0.13 | 0.13 | 96 | 1015.2 |
| 20260905051312 | 51 | 218 | 0.0 | 2.0 | 0.00 | 0.13 | 0.13 | 96 | 1015.2 |
| 20260905050805 | 51 | 218 | 1.0 | 3.0 | 0.00 | 0.13 | 0.13 | 96 | 1015.2 |
| 20260905050259 | 51 | 211 | 1.0 | 3.0 | 0.00 | 0.13 | 0.13 | 96 | 1015.2 |
| 20260905045753 | 51 | 202 | 0.0 | 2.0 | 0.00 | 0.14 | 0.13 | 96 | 1015.3 |
| 20260905045247 | 51 | 202 | 0.0 | 1.0 | 0.00 | 0.14 | 0.13 | 96 | 1015.4 |
| 20260905044742 | 51 | 202 | 0.0 | 0.0 | 0.00 | 0.14 | 0.13 | 96 | 1015.4 |
| 20260905044234 | 51 | 202 | 0.0 | 1.0 | 0.00 | 0.14 | 0.13 | 96 | 1015.4 |
| 20260905043737 | 51 | 202 | 0.0 | 1.0 | 0.00 | 0.14 | 0.13 | 96 | 1015.4 |
| 20260905043456 | 51 | 202 | 0.0 | 0.0 | 0.00 | 0.14 | 0.13 | 96 | 1015.3 |
| 20260905043008 | 51 | 202 | 0.0 | 1.0 | 0.00 | 0.14 | 0.13 | 96 | 1015.3 |
| 20260905042229 | 51 | 202 | 0.0 | 2.0 | 0.00 | 0.15 | 0.13 | 96 | 1015.3 |
| 20260905041727 | 51 | 202 | 0.0 | 2.0 | 0.00 | 0.15 | 0.13 | 96 | 1015.2 |
| 20260905041227 | 52 | 202 | 0.0 | 2.0 | 0.00 | 0.16 | 0.13 | 96 | 1015.3 |
| 20260905040727 | 52 | 202 | 0.0 | 2.0 | 0.00 | 0.17 | 0.13 | 96 | 1015.3 |
| 20260905040232 | 52 | 202 | 0.0 | 2.0 | 0.00 | 0.18 | 0.13 | 96 | 1015.3 |
| 20260905035726 | 52 | 202 | 0.0 | 2.0 | 0.00 | 0.19 | 0.13 | 96 | 1015.2 |
| 20260905035226 | 52 | 174 | 0.0 | 0.0 | 0.00 | 0.20 | 0.13 | 96 | 1015.2 |
| 20260905034722 | 52 | 174 | 0.0 | 0.0 | 0.00 | 0.21 | 0.13 | 96 | 1015.1 |
| 20260905034220 | 52 | 174 | 0.0 | 0.0 | 0.00 | 0.22 | 0.13 | 96 | 1015.0 |
| 20260905033719 | 52 | 174 | 0.0 | 1.0 | 0.00 | 0.23 | 0.13 | 96 | 1015.0 |
| 20260905033217 | 52 | 174 | 0.0 | 1.0 | 0.00 | 0.23 | 0.13 | 96 | 1015.0 |
| 20260905032719 | 53 | 174 | 0.0 | 1.0 | 0.00 | 0.23 | 0.13 | 96 | 1015.0 |
| 20260905032216 | 53 | 174 | 0.0 | 1.0 | 0.00 | 0.23 | 0.13 | 96 | 1014.9 |
| 20260905031715 | 53 | 174 | 0.0 | 1.0 | 0.00 | 0.23 | 0.13 | 96 | 1014.9 |
| 20260905031217 | 53 | 174 | 0.0 | 1.0 | 0.00 | 0.23 | 0.13 | 96 | 1014.8 |
| 20260905030714 | 53 | 174 | 0.0 | 1.0 | 0.00 | 0.23 | 0.13 | 96 | 1014.8 |
| 20260905030222 | 53 | 174 | 0.0 | 0.0 | 0.00 | 0.23 | 0.13 | 96 | 1014.7 |
| 20260905025717 | 53 | 174 | 0.0 | 0.0 | 0.00 | 0.23 | 0.13 | 96 | 1014.7 |
| 20260905025209 | 53 | 174 | 0.0 | 2.0 | 0.00 | 0.23 | 0.13 | 96 | 1014.6 |
| 20260905024705 | 53 | 174 | 0.0 | 2.0 | 0.00 | 0.23 | 0.13 | 96 | 1014.6 |
| 20260905024200 | 53 | 174 | 0.0 | 0.0 | 0.00 | 0.23 | 0.13 | 96 | 1014.6 |
| 20260905023701 | 53 | 174 | 0.0 | 2.0 | 0.00 | 0.23 | 0.13 | 96 | 1014.5 |
| 20260905023431 | 53 | 174 | 1.0 | 2.0 | 0.00 | 0.23 | 0.13 | 96 | 1014.5 |